TimeCST,TemperatureF,Dew PointF,Humidity,Sea Level PressureIn,VisibilityMPH,Wind Direction,Wind SpeedMPH,Gust SpeedMPH,PrecipitationIn,Events,Conditions,WindDirDegrees,DateUTC
12:53 AM,35.1,27.0,72,29.99,10.0,Calm,Calm,-,N/A,,Clear,0,2014-02-19 06:53:00
1:53 AM,37.0,27.0,67,29.98,10.0,WNW,3.5,-,N/A,,Clear,300,2014-02-19 07:53:00
2:53 AM,32.0,26.1,79,29.98,10.0,NW,4.6,-,N/A,,Clear,320,2014-02-19 08:53:00
3:53 AM,30.0,26.1,85,29.98,10.0,SW,4.6,-,N/A,,Clear,230,2014-02-19 09:53:00
4:53 AM,28.0,24.1,85,29.98,10.0,SE,3.5,-,N/A,,Clear,130,2014-02-19 10:53:00
5:53 AM,26.1,23.0,88,29.99,10.0,SW,4.6,-,N/A,,Clear,230,2014-02-19 11:53:00
6:53 AM,27.0,24.1,89,30.01,10.0,SSE,4.6,-,N/A,,Clear,160,2014-02-19 12:53:00
7:53 AM,30.0,26.1,85,30.00,10.0,Calm,Calm,-,N/A,,Clear,0,2014-02-19 13:53:00
8:53 AM,32.0,28.0,85,29.99,10.0,Calm,Calm,-,N/A,,Clear,0,2014-02-19 14:53:00
9:53 AM,35.1,28.9,78,30.03,10.0,SSW,4.6,-,N/A,,Clear,200,2014-02-19 15:53:00
10:53 AM,39.9,30.0,68,30.02,10.0,SSW,5.8,-,N/A,,Clear,200,2014-02-19 16:53:00
11:53 AM,44.1,32.0,63,29.99,10.0,Variable,3.5,-,N/A,,Clear,0,2014-02-19 17:53:00
12:53 PM,50.0,30.9,48,29.93,10.0,SE,8.1,-,N/A,,Clear,130,2014-02-19 18:53:00
1:53 PM,50.0,32.0,50,29.89,10.0,SE,9.2,-,N/A,,Clear,130,2014-02-19 19:53:00
2:53 PM,50.0,30.9,48,29.84,10.0,ESE,6.9,-,N/A,,Partly Cloudy,120,2014-02-19 20:53:00
3:53 PM,48.0,30.0,50,29.81,10.0,East,8.1,-,N/A,,Overcast,80,2014-02-19 21:53:00
4:53 PM,46.9,32.0,56,29.81,10.0,ESE,10.4,-,N/A,,Overcast,110,2014-02-19 22:53:00
5:53 PM,45.0,32.0,60,29.75,10.0,ESE,10.4,-,0.00,Rain,Light Rain,110,2014-02-19 23:53:00
6:53 PM,44.1,34.0,68,29.77,10.0,SE,10.4,-,0.00,,Overcast,130,2014-02-20 00:53:00
7:53 PM,44.1,34.0,68,29.73,10.0,ESE,6.9,-,N/A,,Overcast,120,2014-02-20 01:53:00
8:53 PM,44.1,35.1,71,29.70,10.0,ESE,9.2,-,N/A,,Overcast,110,2014-02-20 02:53:00
9:42 PM,44.1,35.1,71,29.65,10.0,East,8.1,-,N/A,Thunderstorm,Overcast,100,2014-02-20 03:42:00
9:53 PM,43.0,36.0,76,29.66,10.0,ENE,5.8,-,0.00,Rain-Thunderstorm,Light Thunderstorms and Rain,70,2014-02-20 03:53:00
10:13 PM,43.0,35.1,74,29.64,10.0,ENE,5.8,-,0.00,Thunderstorm,Overcast,60,2014-02-20 04:13:00
10:20 PM,43.0,36.0,76,29.63,10.0,East,5.8,-,0.00,Rain,Light Rain,90,2014-02-20 04:20:00
10:53 PM,42.1,36.0,79,29.62,10.0,East,4.6,-,0.00,,Overcast,100,2014-02-20 04:53:00
11:53 PM,42.1,36.0,79,29.59,10.0,East,8.1,-,0.00,,Overcast,100,2014-02-20 05:53:00